Location: Acton
(51.4942°N, 0.2232°W)
Time: 22:18:59
(UTC+00:00)

Cosmos 1766 - Pass Details

Date: 18 September 2020
Orbit: 522 x 543 km, 82.5° (Epoch: 20 October)

Event Time Altitude Azimuth Distance (km) Brightness Sun altitude
Exits shadow 21:09:24 45° 298° (WNW) 736 4.3 -26.6°
Drops below altitude 10° 21:12:59 10° 0° (N) 1,805 6.4 -27.0°
Sets 21:15:14 0° 7° (N) 2,706 7.3 -27.3°
